Location: Devore Heights
(34.2372°N, 117.4156°W)
Time: 08:13:30
(UTC+00:00)

A-11 Canister half - Pass Details

Date: 17 September 2024
Orbit: 1515 x 1684 km, 47.2° (Epoch: 07 October)

Event Time Altitude Azimuth Distance (km) Brightness Sun altitude
Rises 10:14:42 0° 296° (WNW) 4,663 - -39.4°
Reaches altitude 10° 10:18:22 10° 284° (WNW) 3,688 - -38.8°
Maximum altitude 10:25:30 25° 233° (SW) 2,699 - -37.6°
Drops below altitude 10° 10:32:46 10° 182° (S) 3,756 - -36.4°
Sets 10:36:35 0° 170° (S) 4,765 - -35.7°
